Powrót do katalogu

STARLINK-30429

AktywnyŁącznośćVLEO
NORAD 57876·PAYLOAD·🇺🇸 United States

Wystrzelony Sep 16, 2023 z Cape Canaveral Space Force Station

Loading…

Następne Przeloty (najbliższe 24 godziny)

TLE

ŚwieżeSource: CelesTrak SupGP

Epoka: Sep 14, 2026, 21:54 UTC

1 57876C 23144N   26257.91298611  .00003077  00000+0  11145-3 0  2574
2 57876  43.0015 296.8622 0001784 266.3049  81.2731 15.27571913    17

Śledź STARLINK-30429 w czasie rzeczywistym z AllMySat

Download on the App Store